[[{"header":{"parameterUnit":"m.s-1","parameterCategory":1,"la1":30.2991,"la2":30.254,"lo1":-89.0895,"lo2":-89.0444,"dy":0.0017,"dx":0.0017,"nx":28,"ny":28,"refTime":"2025-04-04T09:00:00:Z","depth":0,"parameterNumber":2,"parameterNumberName":"U-component_of_WINDS"},"data":[0,0,0,0,0,0,0,0,0,0,0,0,0,0,0,0,0,0,0,0,0,0,0,0,0,0,0,0,0,0,0,0,0,0,0,0,0,0,0,0,0,0,0,0,0,0,0,0,0,0,0,0,0,0,0,0,0,0,-4.983,-4.9831,0,-4.9949,-4.995,-4.9952,-4.9962,-4.9961,-4.996,-4.9959,-5.0081,-5.0085,-5.0089,0,0,0,0,0,0,0,0,0,0,0,0,0,-4.9614,-4.9618,-4.983,-4.9831,-4.9833,-4.9949,-4.995,-4.9952,-4.9963,-4.9961,-4.996,-4.9958,-5.0079,-5.0084,-5.009,0,0,0,0,0,0,0,0,0,0,0,0,0,-4.9718,-4.9619,-4.983,-4.9852,-4.9855,-4.9948,-4.995,-4.9952,-4.9963,-4.9961,-4.9959,-4.9957,-5.0077,-5.0084,-5.009,-5.0169,0,0,-5.0111,-5.0113,0,0,0,0,0,0,0,0,-4.9712,-4.9726,-4.9847,-4.9851,-4.9855,-4.9939,-4.9919,-5.0025,-4.9963,-4.9922,-4.9959,-4.9956,-5.0035,-5.0045,-5.0071,-5.0175,-5.018,-5.0111,-5.0115,-5.0118,-5.012,0,0,0,0,0,0,0,-4.9705,-4.9721,-4.9877,-4.9849,-4.9854,-4.9857,-4.987,-4.9939,-4.9988,-4.9926,-4.9927,-4.9941,-5.0037,-5.0065,-5.0074,-5.0182,-5.0111,-5.0117,-5.0121,-5.0124,-5.0356,-5.0358,0,0,0,0,0,0,-4.9693,-4.9715,-4.9873,-4.9881,-4.9777,-4.9862,-4.9876,-4.9914,-4.9987,-4.9996,-4.9942,-4.9941,-5.0055,-5.0067,-5.0079,-5.0175,-5.0118,-5.0124,-5.0128,-5.0354,-5.0357,-5.0359,0,0,0,0,0,0,-4.9688,-4.9707,-4.9868,-4.9798,-4.9819,-4.9868,-4.991,-4.9917,-4.9945,-4.9999,-5.0008,-4.9962,-5.0054,-5.0069,-5.0147,-5.0179,-5.0127,-5.0133,-5.0351,-5.0355,-5.0358,-5.0368,0,0,0,0,0,0,-4.9682,-4.9705,-4.9735,-4.9799,-4.9822,-4.9934,-4.9912,-4.9921,-4.9957,-4.9956,-5.002,-5.0029,-5.0053,-5.0137,-5.0153,-5.0187,-5.0138,-5.0349,-5.0353,-5.0357,-5.0365,-5.0371,-5.0377,0,0,0,0,0,-4.9674,-4.9733,-4.9737,-4.9756,-4.9861,-4.9936,-4.9949,-4.9976,-4.9959,-4.999,-5.0025,-5.0027,-5.0174,-5.0144,-5.0163,-5.02,-5.0347,-5.0352,-5.0357,-5.0362,-5.037,-5.0377,0,0,0,0,0,0,-4.9672,-4.9742,-4.9746,-4.9827,-4.9876,-4.9937,-4.9976,-4.9983,-5.0037,-5.0034,-5.0065,-5.0079,-5.0155,-5.0186,-5.0152,-5.028,-5.0259,-5.0268,-5.0257,-5.0265,-5.027,-5.026,-5.0144,0,0,0,0,0,-4.9681,-4.9736,-4.9794,-4.986,-4.9884,-4.9926,-4.996,-4.9976,-5.0027,-5.0048,-5.0088,-5.0138,-5.0195,-5.0232,-5.0288,-5.0371,-5.0385,-5.0406,-5.0412,-5.0416,-5.0423,-5.0469,-5.0478,-5.0375,-5.0375,-5.0375,0,0,-4.97,-4.9745,-4.9777,-4.9861,-4.99,-4.9956,-4.9943,-5.0003,-5.0045,-5.0057,-5.0131,-5.0164,-5.0221,-5.0302,-5.0339,-5.033,-5.0455,-5.0423,-5.0426,-5.043,-5.0475,-5.0485,-5.0493,-5.0379,-5.0378,-5.0378,0,0,-4.9762,-4.9802,-4.9861,-4.9901,-4.9961,-4.9989,-5.0003,-5.0065,-5.0086,-5.0162,-5.0173,-5.0224,-5.0322,-5.0362,-5.0396,-5.0477,-5.0481,-5.0494,-5.0524,-5.0569,-5.0577,-5.0584,-5.0611,-5.0621,-5.0501,-5.0501,-5.0501,0,-4.9778,-4.9862,-4.9891,-4.9951,-4.9987,-5.0002,-5.0062,-5.0099,-5.0174,-5.0199,-5.0188,-5.0312,-5.0352,-5.0442,-5.0462,-5.0489,-5.0506,-5.0485,-5.0573,-5.0581,-5.0588,-5.0615,-5.0625,-5.0503,-5.0502,-5.0502,-5.0502,0,-4.9878,-4.9937,-4.9977,-5.0049,-5.0091,-5.0151,-5.0189,-5.0228,-5.0242,-5.0271,-5.0349,-5.0398,-5.0464,-5.0487,-5.0501,-5.0579,-5.0572,-5.0567,-5.0545,-5.0598,-5.0624,-5.0634,-5.0504,-5.0504,-5.0503,-5.0503,0,0,-4.9939,-5.0027,-5.0042,-5.0075,-5.0143,-5.0189,-5.025,-5.0315,-5.0347,-5.04,-5.0451,-5.0535,-5.0531,-5.057,-5.0589,-5.0628,-5.0688,-5.0619,-5.0621,-5.0628,-5.0777,-5.0778,-5.0789,-5.0693,-5.0695,-5.0696,-5.0771,0,-5.0007,-5.0115,-5.0144,-5.0236,-5.029,-5.0306,-5.036,-5.0408,-5.0438,-5.0489,-5.0523,-5.0581,-5.0573,-5.0596,-5.0636,-5.0672,-5.0718,-5.0668,-5.074,-5.0742,-5.0722,-5.0803,-5.0804,-5.0872,-5.0782,-5.0783,-5.0785,0,-5.01,-5.0154,-5.0252,-5.0313,-5.0337,-5.0385,-5.0447,-5.0496,-5.0551,-5.057,-5.0614,-5.063,-5.0695,-5.0673,-5.0763,-5.0728,-5.076,-5.0783,-5.0786,-5.0792,-5.0764,-5.0808,-5.0895,-5.0904,-5.0801,-5.0799,-5.0798,0,-5.0133,-5.023,-5.0301,-5.0329,-5.0403,-5.0436,-5.0469,-5.0523,-5.056,-5.0615,-5.064,-5.0702,-5.0735,-5.0783,-5.0816,-5.0797,-5.0903,-5.0883,-5.092,-5.0919,-5.0939,-5.0937,-5.1029,-5.0964,-5.0964,-5.0964,-5.0964,0,-5.0204,-5.0263,-5.0316,-5.0359,-5.0426,-5.046,-5.0525,-5.0558,-5.0606,-5.0656,-5.0676,-5.0723,-5.0764,-5.0817,-5.0844,-5.0914,-5.093,-5.0947,-5.0952,-5.0943,-5.0941,-5.0963,-5.0958,-5.0967,-5.0966,-5.0965,-5.0965,0,-5.025,-5.0289,-5.0366,-5.0431,-5.0449,-5.0495,-5.055,-5.0593,-5.0625,-5.0689,-5.0706,-5.0756,-5.0819,-5.0858,-5.0939,-5.0957,-5.1033,-5.1039,-5.1014,-5.1016,-5.105,-5.1046,-5.1158,-5.1174,-5.11,-5.11,-5.1101,0,-5.0292,-5.0337,-5.0407,-5.0442,-5.0475,-5.0532,-5.057,-5.0606,-5.0645,-5.0713,-5.0748,-5.0813,-5.0866,-5.0967,-5.1011,-5.1073,-5.1078,-5.1114,-5.1088,-5.1077,-5.1077,-5.1073,-5.1077,-5.1117,-5.1117,-5.1118,-5.1118,0,-5.0362,-5.0379,-5.0433,-5.0495,-5.054,-5.059,-5.064,-5.0668,-5.0713,-5.0757,-5.0822,-5.0863,-5.0946,-5.101,-5.1076,-5.1111,-5.1122,-5.1127,-5.1138,-5.1128,-5.1111,-5.1119,-5.1023,-5.1123,-5.1123,-5.1122,-5.1122,-5.1122,-5.0405,-5.0446,-5.0502,-5.0562,-5.0604,-5.0651,-5.0694,-5.0732,-5.0787,-5.0856,-5.0875,-5.0943,-5.1,-5.109,-5.1126,-5.118,-5.1175,-5.1192,-5.1196,-5.1199,-5.1198,-5.1105,-5.1193,-5.1193,-5.1193,-5.1193,-5.1193,0,-5.0474,-5.0511,-5.0567,-5.0636,-5.0684,-5.0692,-5.0748,-5.0787,-5.0847,-5.0898,-5.0951,-5.1026,-5.1089,-5.1139,-5.1203,-5.1237,-5.1244,-5.1253,-5.1249,-5.1257,-5.12,-5.1183,-5.1246,-5.1246,-5.1246,-5.1246,-5.1246,-5.1246,-5.0515,-5.0585,-5.0609,-5.07,-5.0737,-5.0803,-5.0835,-5.0879,-5.092,-5.1003,-5.1055,-5.1087,-5.1138,-5.1207,-5.1265,-5.1279,-5.1301,-5.1308,-5.1322,-5.1267,-5.1261,-5.1255,-5.1239,-5.1313,-5.1313,-5.1374,-5.1374,-5.1375]},{"header":{"parameterUnit":"m.s-1","parameterCategory":1,"la1":30.2991,"la2":30.254,"lo1":-89.0895,"lo2":-89.0444,"dy":0.0017,"dx":0.0017,"nx":28,"ny":28,"refTime":"2025-04-04T09:00:00:Z","depth":0,"parameterNumber":3,"parameterNumberName":"V-component_of_WINDS"},"data":[0,0,0,0,0,0,0,0,0,0,0,0,0,0,0,0,0,0,0,0,0,0,0,0,0,0,0,0,0,0,0,0,0,0,0,0,0,0,0,0,0,0,0,0,0,0,0,0,0,0,0,0,0,0,0,0,0,0,3.7092,3.7093,0,3.7184,3.7186,3.7187,3.7209,3.7208,3.7207,3.7207,3.73,3.7303,3.7306,0,0,0,0,0,0,0,0,0,0,0,0,0,3.6934,3.6937,3.7092,3.7093,3.7094,3.7184,3.7186,3.7187,3.7209,3.7208,3.7207,3.7206,3.7299,3.7303,3.7306,0,0,0,0,0,0,0,0,0,0,0,0,0,3.7012,3.6937,3.7091,3.7116,3.7119,3.7184,3.7186,3.7187,3.7209,3.7208,3.7207,3.7206,3.7298,3.7302,3.7307,3.7354,0,0,3.7321,3.7323,0,0,0,0,0,0,0,0,3.7007,3.7018,3.7111,3.7114,3.7118,3.7184,3.7164,3.7243,3.7209,3.7175,3.7207,3.7206,3.7262,3.7269,3.7289,3.7358,3.7362,3.7321,3.7324,3.7326,3.7327,0,0,0,0,0,0,0,3.7002,3.7014,3.7128,3.7112,3.7117,3.7122,3.7132,3.7179,3.7222,3.7178,3.7179,3.719,3.7264,3.7284,3.7291,3.7363,3.7321,3.7325,3.7328,3.733,3.7479,3.748,0,0,0,0,0,0,3.6992,3.7009,3.7125,3.7131,3.7059,3.7126,3.7137,3.7164,3.7222,3.723,3.7191,3.7191,3.7277,3.7286,3.7295,3.7356,3.7326,3.733,3.7333,3.7478,3.748,3.7481,0,0,0,0,0,0,3.6989,3.7003,3.7122,3.7071,3.7086,3.713,3.7159,3.7166,3.7187,3.7232,3.724,3.7204,3.7277,3.7288,3.734,3.7359,3.7332,3.7336,3.7477,3.7479,3.748,3.7477,0,0,0,0,0,0,3.6984,3.7001,3.7019,3.7071,3.7089,3.7165,3.716,3.7168,3.7195,3.7196,3.7247,3.7254,3.7277,3.7333,3.7344,3.7365,3.734,3.7475,3.7477,3.748,3.7476,3.7479,3.7481,0,0,0,0,0,3.6979,3.7013,3.702,3.7034,3.7112,3.7166,3.7176,3.7202,3.7196,3.7215,3.7245,3.7252,3.7355,3.7338,3.7351,3.7374,3.7474,3.7477,3.7479,3.7475,3.7478,3.7481,0,0,0,0,0,0,3.6961,3.7021,3.7028,3.7081,3.7119,3.717,3.7194,3.7205,3.7244,3.7243,3.7274,3.7285,3.7335,3.7359,3.7339,3.7424,3.7414,3.742,3.7406,3.741,3.7413,3.7406,3.7344,0,0,0,0,0,3.6964,3.7003,3.7052,3.7094,3.7113,3.715,3.7174,3.7192,3.7231,3.7247,3.728,3.7318,3.736,3.7386,3.7426,3.7479,3.7492,3.7501,3.7504,3.7506,3.7511,3.7544,3.7549,3.749,3.749,3.749,0,0,3.6969,3.7006,3.7029,3.7092,3.7123,3.7163,3.7163,3.7205,3.7235,3.7253,3.7305,3.7331,3.7375,3.7429,3.7454,3.745,3.753,3.751,3.7511,3.7515,3.7547,3.7553,3.7558,3.7492,3.7491,3.7491,0,0,3.7,3.7031,3.7071,3.7103,3.715,3.7176,3.7185,3.7235,3.7254,3.7306,3.7322,3.7358,3.7427,3.746,3.7485,3.7531,3.7541,3.7543,3.7558,3.7589,3.7594,3.7598,3.7617,3.7623,3.7547,3.7547,3.7547,0,3.7,3.7062,3.7089,3.7132,3.716,3.7179,3.7221,3.725,3.7308,3.7327,3.7322,3.7413,3.7444,3.7506,3.7518,3.7537,3.755,3.7538,3.7591,3.7596,3.76,3.7619,3.7625,3.7548,3.7548,3.7548,3.7548,0,3.7061,3.7103,3.713,3.7187,3.7218,3.7259,3.7294,3.7322,3.7338,3.7363,3.7418,3.7457,3.7506,3.7522,3.7536,3.7588,3.7585,3.7585,3.7577,3.7606,3.7623,3.763,3.7548,3.7548,3.7548,3.7548,0,0,3.7082,3.7157,3.7166,3.7194,3.7249,3.7283,3.7326,3.7376,3.74,3.744,3.7478,3.7538,3.754,3.7569,3.7587,3.7614,3.7652,3.7612,3.7614,3.762,3.7714,3.7714,3.7722,3.7658,3.7659,3.766,3.7711,0,3.7121,3.7199,3.7227,3.7292,3.7333,3.7353,3.7391,3.743,3.7455,3.7494,3.7522,3.7566,3.7564,3.7582,3.761,3.7641,3.7671,3.7638,3.7695,3.7696,3.7684,3.773,3.773,3.7776,3.7717,3.7719,3.7719,0,3.7177,3.722,3.7289,3.7342,3.736,3.7394,3.7443,3.748,3.7524,3.7542,3.7575,3.7592,3.7639,3.7628,3.7694,3.767,3.7695,3.7714,3.7717,3.7724,3.771,3.7741,3.7791,3.7798,3.773,3.7729,3.7729,0,3.7188,3.7263,3.7315,3.7338,3.74,3.7424,3.7451,3.7495,3.7524,3.7567,3.7587,3.7634,3.766,3.7697,3.7727,3.7715,3.7791,3.7781,3.7808,3.7808,3.7824,3.7823,3.788,3.7837,3.7837,3.7837,3.7837,0,3.723,3.7272,3.7321,3.7353,3.7402,3.7434,3.7481,3.7509,3.7549,3.7587,3.7607,3.7643,3.7679,3.772,3.7744,3.7796,3.7807,3.7823,3.7829,3.7823,3.7821,3.784,3.7839,3.7839,3.7838,3.7838,3.7838,0,3.7251,3.7285,3.7344,3.7399,3.7415,3.7448,3.7496,3.7528,3.7556,3.7605,3.7618,3.7661,3.771,3.7744,3.7806,3.7822,3.788,3.7885,3.7866,3.7869,3.7895,3.7892,3.7968,3.7981,3.7927,3.7927,3.7928,0,3.7276,3.7309,3.7369,3.7397,3.7425,3.7469,3.75,3.7533,3.7564,3.7619,3.7645,3.7696,3.7739,3.7817,3.7854,3.7903,3.791,3.7933,3.7917,3.7911,3.7913,3.7912,3.7916,3.7936,3.7936,3.7937,3.7937,0,3.7317,3.7334,3.7377,3.7428,3.7465,3.7506,3.7547,3.7569,3.7609,3.7643,3.7695,3.7728,3.7794,3.7845,3.7898,3.7926,3.7939,3.7942,3.7951,3.7945,3.7934,3.7943,3.7874,3.794,3.794,3.7939,3.7939,3.7939,3.7343,3.7375,3.7423,3.7471,3.7506,3.7545,3.758,3.7612,3.7656,3.7713,3.773,3.7784,3.783,3.7903,3.7932,3.7976,3.7974,3.7986,3.799,3.7993,3.7994,3.7926,3.7985,3.7985,3.7985,3.7985,3.7985,0,3.7387,3.742,3.7464,3.7523,3.7562,3.7571,3.7618,3.765,3.7698,3.7741,3.7783,3.7844,3.7894,3.7936,3.7989,3.8016,3.8023,3.8028,3.8027,3.8034,3.7992,3.798,3.8022,3.8022,3.8022,3.8022,3.8022,3.8022,3.7415,3.747,3.7493,3.7566,3.7598,3.7653,3.7679,3.7716,3.775,3.7818,3.786,3.7887,3.793,3.7987,3.8034,3.8045,3.8064,3.8069,3.8081,3.8041,3.8037,3.8033,3.8022,3.8072,3.8072,3.812,3.8121,3.8121]}]]